^^
Saratoga-Weather Station Historical Data
Daily Summary for March 17, 2020 Units:  Metric    English   Both
Daily Weekly Monthly Yearly Custom
  High: Low: Average:
Temperature: 23.4 °C 14.7 °C 18.5 °C
Dew Point: 14.9 °C 12.9 °C 13.8 °C
Humidity: 90% 55% 76%
Wind Speed: 19.5km/h 0km/h 3.8km/h
Wind Gust: 19.3km/h - -
Wind- - WSW
Pressure: 1020.3 hPa 1018.6 hPa -
Precipitation: 0.0 mm    
Historical Graphs
 
 
Tabular Data for March 17, 2020
Time Temperature Dew Point Pressure Wind Wind Speed Wind Gust Humidity Rainfall Rate (Hourly) solar
00:02 15 °C 13.4 °C 1019.3 hPa WSW 6.4 km/h 6.4 km/h 90% 0.0 mm 0 W/m2
00:07 15 °C 13.4 °C 1019.3 hPa West 4.7 km/h 6.4 km/h 90% 0.0 mm 0 W/m2
00:12 15.1 °C 13.5 °C 1019.3 hPa WSW 7.9 km/h 9.7 km/h 90% 0.0 mm 0 W/m2
00:17 15.1 °C 13.5 °C 1019.3 hPa West 6.4 km/h 9.7 km/h 90% 0.0 mm 0 W/m2
00:22 15.1 °C 13.5 °C 1019.3 hPa West 4.7 km/h 8 km/h 90% 0.0 mm 0 W/m2
00:27 15.1 °C 13.5 °C 1019.3 hPa West 6.4 km/h 6.4 km/h 90% 0.0 mm 0 W/m2
00:32 15.1 °C 13.5 °C 1019.3 hPa West 3.2 km/h 6.4 km/h 90% 0.0 mm 0 W/m2
00:37 15.1 °C 13.3 °C 1019.3 hPa WNW 1.4 km/h 3.2 km/h 89% 0.0 mm 0 W/m2
00:42 15.1 °C 13.3 °C 1019.3 hPa West 3.2 km/h 3.2 km/h 89% 0.0 mm 0 W/m2
00:47 15.1 °C 13.3 °C 1019.3 hPa West 4.7 km/h 11.3 km/h 89% 0.0 mm 0 W/m2
00:52 15.1 °C 13.3 °C 1019.3 hPa West 4.7 km/h 8 km/h 89% 0.0 mm 0 W/m2
00:57 15.1 °C 13.3 °C 1019.3 hPa West 3.2 km/h 4.8 km/h 89% 0.0 mm 0 W/m2
01:02 15.1 °C 13.3 °C 1019.3 hPa WNW 1.4 km/h 8 km/h 89% 0.0 mm 0 W/m2
01:07 15.1 °C 13.3 °C 1019.3 hPa WNW 4.7 km/h 6.4 km/h 89% 0.0 mm 0 W/m2
01:12 15.1 °C 13.3 °C 1019.3 hPa West 4.7 km/h 9.7 km/h 89% 0.0 mm 0 W/m2
01:17 15.1 °C 13.3 °C 1019.0 hPa West 4.7 km/h 4.8 km/h 89% 0.0 mm 0 W/m2
01:22 15.1 °C 13.3 °C 1019.0 hPa WNW 1.4 km/h 9.7 km/h 89% 0.0 mm 0 W/m2
01:27 15 °C 13.2 °C 1019.0 hPa West 3.2 km/h 6.4 km/h 89% 0.0 mm 0 W/m2
01:32 15 °C 13.2 °C 1019.0 hPa West 6.4 km/h 9.7 km/h 89% 0.0 mm 0 W/m2
01:37 15.1 °C 13.3 °C 1019.0 hPa WNW 4.7 km/h 9.7 km/h 89% 0.0 mm 0 W/m2
01:42 15.1 °C 13.3 °C 1019.0 hPa WNW 3.2 km/h 11.3 km/h 89% 0.0 mm 0 W/m2
01:47 15.1 °C 13.3 °C 1019.0 hPa West 3.2 km/h 11.3 km/h 89% 0.0 mm 0 W/m2
01:52 15 °C 13.2 °C 1019.0 hPa West 6.4 km/h 9.7 km/h 89% 0.0 mm 0 W/m2
01:57 15.1 °C 13.1 °C 1019.0 hPa SW 6.4 km/h 9.7 km/h 88% 0.0 mm 0 W/m2
02:02 15.1 °C 13.1 °C 1019.0 hPa NW 3.2 km/h 6.4 km/h 88% 0.0 mm 0 W/m2
02:07 15.1 °C 13.1 °C 1019.0 hPa West 4.7 km/h 9.7 km/h 88% 0.0 mm 0 W/m2
02:12 15.1 °C 13.1 °C 1019.0 hPa Calm   3.2 km/h 88% 0.0 mm 0 W/m2
02:17 15.1 °C 13.1 °C 1019.0 hPa WNW 4.7 km/h 6.4 km/h 88% 0.0 mm 0 W/m2
02:22 15.1 °C 13.1 °C 1019.0 hPa WNW 3.2 km/h 4.8 km/h 88% 0.0 mm 0 W/m2
02:27 15.1 °C 13.1 °C 1019.0 hPa West 4.7 km/h 6.4 km/h 88% 0.0 mm 0 W/m2
02:32 15 °C 13 °C 1019.0 hPa West 9.7 km/h 9.7 km/h 88% 0.0 mm 0 W/m2
02:37 14.9 °C 13.1 °C 1019.0 hPa West 4.7 km/h 12.9 km/h 89% 0.0 mm 0 W/m2
02:42 14.9 °C 13.1 °C 1019.0 hPa West 6.4 km/h 11.3 km/h 89% 0.0 mm 0 W/m2
02:47 14.8 °C 13 °C 1019.0 hPa WNW 3.2 km/h 4.8 km/h 89% 0.0 mm 0 W/m2
02:52 14.8 °C 13 °C 1019.0 hPa WNW 4.7 km/h 6.4 km/h 89% 0.0 mm 0 W/m2
02:57 14.8 °C 13.2 °C 1019.0 hPa WNW 4.7 km/h 6.4 km/h 90% 0.0 mm 0 W/m2
03:02 14.8 °C 13 °C 1019.0 hPa NNW 4.7 km/h 9.7 km/h 89% 0.0 mm 0 W/m2
03:07 14.8 °C 13 °C 1019.0 hPa NW 1.4 km/h 6.4 km/h 89% 0.0 mm 0 W/m2
03:12 14.8 °C 13 °C 1019.0 hPa WSW 1.4 km/h 6.4 km/h 89% 0.0 mm 0 W/m2
03:17 14.8 °C 13 °C 1019.0 hPa WNW 1.4 km/h 3.2 km/h 89% 0.0 mm 0 W/m2
03:22 14.8 °C 13 °C 1019.0 hPa WSW 3.2 km/h 3.2 km/h 89% 0.0 mm 0 W/m2
03:27 14.8 °C 13 °C 1019.0 hPa WSW 3.2 km/h 3.2 km/h 89% 0.0 mm 0 W/m2
03:32 14.7 °C 12.9 °C 1019.0 hPa WSW 1.4 km/h 3.2 km/h 89% 0.0 mm 0 W/m2
03:37 14.7 °C 12.9 °C 1019.0 hPa WSW 1.4 km/h 3.2 km/h 89% 0.0 mm 0 W/m2
03:42 14.7 °C 12.9 °C 1019.0 hPa Calm   1.6 km/h 89% 0.0 mm 0 W/m2
03:47 14.7 °C 12.9 °C 1019.0 hPa WSW 1.4 km/h 3.2 km/h 89% 0.0 mm 0 W/m2
03:52 14.7 °C 12.9 °C 1019.0 hPa West 3.2 km/h 4.8 km/h 89% 0.0 mm 0 W/m2
03:57 14.7 °C 12.9 °C 1019.0 hPa West 1.4 km/h 4.8 km/h 89% 0.0 mm 0 W/m2
04:02 14.7 °C 12.9 °C 1019.0 hPa West 1.4 km/h 3.2 km/h 89% 0.0 mm 0 W/m2
04:07 14.7 °C 12.9 °C 1019.0 hPa West 4.7 km/h 4.8 km/h 89% 0.0 mm 0 W/m2
04:12 14.7 °C 12.9 °C 1018.6 hPa West 4.7 km/h 4.8 km/h 89% 0.0 mm 0 W/m2
04:17 14.8 °C 13 °C 1019.0 hPa West 1.4 km/h 3.2 km/h 89% 0.0 mm 0 W/m2
04:22 14.8 °C 13 °C 1019.0 hPa NW 1.4 km/h 4.8 km/h 89% 0.0 mm 0 W/m2
04:27 14.8 °C 13 °C 1019.0 hPa WNW 1.4 km/h 3.2 km/h 89% 0.0 mm 0 W/m2
04:32 14.8 °C 13 °C 1019.0 hPa West 1.4 km/h 3.2 km/h 89% 0.0 mm 0 W/m2
04:37 14.8 °C 13 °C 1019.0 hPa WSW 4.7 km/h 6.4 km/h 89% 0.0 mm 0 W/m2
04:42 14.8 °C 13 °C 1019.0 hPa West 1.4 km/h 4.8 km/h 89% 0.0 mm 0 W/m2
04:47 14.8 °C 13 °C 1019.0 hPa West 4.7 km/h 4.8 km/h 89% 0.0 mm 0 W/m2
04:52 14.8 °C 13 °C 1019.0 hPa WSW 1.4 km/h 3.2 km/h 89% 0.0 mm 0 W/m2
04:57 14.8 °C 13 °C 1019.0 hPa West 1.4 km/h 4.8 km/h 89% 0.0 mm 0 W/m2
05:02 14.8 °C 13 °C 1019.0 hPa West 1.4 km/h 4.8 km/h 89% 0.0 mm 0 W/m2
05:07 14.8 °C 13 °C 1019.0 hPa West 3.2 km/h 6.4 km/h 89% 0.0 mm 0 W/m2
05:12 14.9 °C 13.1 °C 1019.0 hPa West 1.4 km/h 4.8 km/h 89% 0.0 mm 0 W/m2
05:17 14.9 °C 13.1 °C 1019.0 hPa West 3.2 km/h 9.7 km/h 89% 0.0 mm 0 W/m2
05:22 14.9 °C 12.9 °C 1019.0 hPa WSW 1.4 km/h 3.2 km/h 88% 0.0 mm 0 W/m2
05:27 14.9 °C 12.9 °C 1019.0 hPa WSW 1.4 km/h 6.4 km/h 88% 0.0 mm 0 W/m2
05:32 14.9 °C 12.9 °C 1019.0 hPa WSW 3.2 km/h 6.4 km/h 88% 0.0 mm 0 W/m2
05:37 14.9 °C 12.9 °C 1019.0 hPa West 1.4 km/h 6.4 km/h 88% 0.0 mm 0 W/m2
05:42 14.9 °C 13.1 °C 1019.0 hPa WSW 3.2 km/h 6.4 km/h 89% 0.0 mm 0 W/m2
05:47 14.9 °C 13.1 °C 1019.0 hPa West 3.2 km/h 6.4 km/h 89% 0.0 mm 0 W/m2
05:52 14.9 °C 13.1 °C 1019.0 hPa WNW 4.7 km/h 4.8 km/h 89% 0.0 mm 0 W/m2
05:57 14.9 °C 13.1 °C 1019.0 hPa West 1.4 km/h 6.4 km/h 89% 0.0 mm 0 W/m2
06:02 14.9 °C 13.1 °C 1019.3 hPa West 3.2 km/h 3.2 km/h 89% 0.0 mm 0 W/m2
06:07 14.9 °C 13.1 °C 1019.0 hPa Calm   3.2 km/h 89% 0.0 mm 5 W/m2
06:12 14.9 °C 13.1 °C 1019.3 hPa NW 3.2 km/h 8 km/h 89% 0.0 mm 5 W/m2
06:17 14.9 °C 13.1 °C 1019.3 hPa West 1.4 km/h 4.8 km/h 89% 0.0 mm 7 W/m2
06:22 14.9 °C 13.1 °C 1019.3 hPa West 3.2 km/h 6.4 km/h 89% 0.0 mm 11 W/m2
06:27 14.9 °C 13.1 °C 1019.3 hPa West 3.2 km/h 3.2 km/h 89% 0.0 mm 12 W/m2
06:32 14.9 °C 13.1 °C 1019.3 hPa WSW 3.2 km/h 4.8 km/h 89% 0.0 mm 14 W/m2
06:37 15 °C 13.2 °C 1019.3 hPa West 3.2 km/h 4.8 km/h 89% 0.0 mm 16 W/m2
06:42 15 °C 13.2 °C 1019.3 hPa West 4.7 km/h 4.8 km/h 89% 0.0 mm 18 W/m2
06:47 15 °C 13.2 °C 1019.3 hPa West 3.2 km/h 4.8 km/h 89% 0.0 mm 21 W/m2
06:52 15 °C 13 °C 1019.3 hPa West 1.4 km/h 3.2 km/h 88% 0.0 mm 23 W/m2
06:57 15.1 °C 13.1 °C 1019.3 hPa West 3.2 km/h 4.8 km/h 88% 0.0 mm 26 W/m2
07:02 15.1 °C 13.1 °C 1019.3 hPa WSW 7.9 km/h 9.7 km/h 88% 0.0 mm 33 W/m2
07:07 15.1 °C 13.1 °C 1019.3 hPa WNW 3.2 km/h 6.4 km/h 88% 0.0 mm 37 W/m2
07:12 15.1 °C 13.1 °C 1019.3 hPa West 4.7 km/h 6.4 km/h 88% 0.0 mm 39 W/m2
07:17 15.2 °C 13.2 °C 1019.3 hPa West 4.7 km/h 4.8 km/h 88% 0.0 mm 42 W/m2
07:22 15.2 °C 13.2 °C 1019.6 hPa WSW 6.4 km/h 9.7 km/h 88% 0.0 mm 47 W/m2
07:27 15.2 °C 13.2 °C 1019.6 hPa West 6.4 km/h 6.4 km/h 88% 0.0 mm 51 W/m2
07:32 15.2 °C 13.2 °C 1019.6 hPa West 4.7 km/h 8 km/h 88% 0.0 mm 54 W/m2
07:37 15.3 °C 13.3 °C 1019.6 hPa WNW 3.2 km/h 6.4 km/h 88% 0.0 mm 62 W/m2
07:42 15.3 °C 13.3 °C 1019.6 hPa West 4.7 km/h 6.4 km/h 88% 0.0 mm 65 W/m2
07:47 15.4 °C 13.4 °C 1019.6 hPa West 3.2 km/h 9.7 km/h 88% 0.0 mm 69 W/m2
07:52 15.4 °C 13.2 °C 1019.6 hPa West 4.7 km/h 6.4 km/h 87% 0.0 mm 70 W/m2
07:57 15.4 °C 13.2 °C 1019.6 hPa WSW 7.9 km/h 9.7 km/h 87% 0.0 mm 72 W/m2
08:02 15.5 °C 13.3 °C 1019.6 hPa WNW 6.4 km/h 6.4 km/h 87% 0.0 mm 79 W/m2
08:07 15.6 °C 13.4 °C 1019.6 hPa NW 3.2 km/h 6.4 km/h 87% 0.0 mm 83 W/m2
08:12 15.6 °C 13.4 °C 1019.6 hPa WNW 3.2 km/h 8 km/h 87% 0.0 mm 91 W/m2
08:17 15.6 °C 13.4 °C 1019.6 hPa West 3.2 km/h 4.8 km/h 87% 0.0 mm 100 W/m2
08:22 15.7 °C 13.5 °C 1019.6 hPa WNW 1.4 km/h 6.4 km/h 87% 0.0 mm 111 W/m2
08:27 15.8 °C 13.6 °C 1019.6 hPa West 4.7 km/h 6.4 km/h 87% 0.0 mm 123 W/m2
08:32 15.8 °C 13.5 °C 1019.6 hPa West 3.2 km/h 9.7 km/h 86% 0.0 mm 125 W/m2
08:37 15.9 °C 13.6 °C 1019.6 hPa WNW 4.7 km/h 4.8 km/h 86% 0.0 mm 128 W/m2
08:42 15.9 °C 13.6 °C 1019.6 hPa West 4.7 km/h 8 km/h 86% 0.0 mm 142 W/m2
08:47 16.1 °C 13.8 °C 1019.6 hPa WSW 4.7 km/h 6.4 km/h 86% 0.0 mm 155 W/m2
08:52 16.2 °C 13.9 °C 1019.6 hPa West 3.2 km/h 4.8 km/h 86% 0.0 mm 153 W/m2
08:57 16.3 °C 14 °C 1019.6 hPa WNW 3.2 km/h 3.2 km/h 86% 0.0 mm 165 W/m2
09:02 16.4 °C 13.9 °C 1020.0 hPa West 4.7 km/h 9.7 km/h 85% 0.0 mm 179 W/m2
09:07 16.5 °C 14 °C 1020.0 hPa WSW 6.4 km/h 9.7 km/h 85% 0.0 mm 186 W/m2
09:12 16.6 °C 13.9 °C 1020.0 hPa West 1.4 km/h 4.8 km/h 84% 0.0 mm 183 W/m2
09:17 16.7 °C 13.8 °C 1020.0 hPa WNW 4.7 km/h 9.7 km/h 83% 0.0 mm 176 W/m2
09:22 16.8 °C 13.7 °C 1020.0 hPa NW 1.4 km/h 3.2 km/h 82% 0.0 mm 171 W/m2
09:27 16.8 °C 13.7 °C 1020.0 hPa WNW 3.2 km/h 8 km/h 82% 0.0 mm 144 W/m2
09:32 16.9 °C 13.8 °C 1020.0 hPa WNW 1.4 km/h 3.2 km/h 82% 0.0 mm 146 W/m2
09:37 17 °C 13.7 °C 1020.0 hPa NW 3.2 km/h 8 km/h 81% 0.0 mm 118 W/m2
09:43 17.1 °C 13.8 °C 1020.0 hPa NW 1.4 km/h 3.2 km/h 81% 0.0 mm 155 W/m2
09:48 17.1 °C 13.8 °C 1020.0 hPa NW 1.4 km/h 6.4 km/h 81% 0.0 mm 174 W/m2
09:53 17.2 °C 13.9 °C 1020.0 hPa ENE 1.4 km/h 3.2 km/h 81% 0.0 mm 183 W/m2
09:58 17.3 °C 13.8 °C 1020.3 hPa East 1.4 km/h 4.8 km/h 80% 0.0 mm 183 W/m2
10:03 17.4 °C 13.7 °C 1020.3 hPa West 1.4 km/h 3.2 km/h 79% 0.0 mm 209 W/m2
10:08 17.4 °C 13.7 °C 1020.0 hPa NE 3.2 km/h 4.8 km/h 79% 0.0 mm 257 W/m2
10:13 17.6 °C 13.9 °C 1020.3 hPa ESE 7.9 km/h 8 km/h 79% 0.0 mm 281 W/m2
10:18 17.7 °C 14 °C 1020.3 hPa East 4.7 km/h 9.7 km/h 79% 0.0 mm 234 W/m2
10:23 17.7 °C 14 °C 1020.3 hPa NNE 1.4 km/h 4.8 km/h 79% 0.0 mm 197 W/m2
10:28 17.8 °C 14.1 °C 1020.0 hPa East 1.4 km/h 3.2 km/h 79% 0.0 mm 207 W/m2
10:33 18 °C 14.3 °C 1020.3 hPa East 3.2 km/h 6.4 km/h 79% 0.0 mm 237 W/m2
10:38 18.1 °C 14.2 °C 1020.3 hPa ENE 3.2 km/h 4.8 km/h 78% 0.0 mm 246 W/m2
10:43 18.1 °C 14.2 °C 1020.3 hPa ESE 3.2 km/h 6.4 km/h 78% 0.0 mm 243 W/m2
10:48 18.2 °C 14.1 °C 1020.3 hPa ENE 3.2 km/h 4.8 km/h 77% 0.0 mm 243 W/m2
10:53 18.2 °C 14.3 °C 1020.3 hPa Calm   6.4 km/h 78% 0.0 mm 244 W/m2
10:58 18.3 °C 14.2 °C 1020.3 hPa ENE 1.4 km/h 3.2 km/h 77% 0.0 mm 243 W/m2
11:03 18.4 °C 14.3 °C 1020.3 hPa ESE 3.2 km/h 9.7 km/h 77% 0.0 mm 267 W/m2
11:08 18.6 °C 14.5 °C 1020.3 hPa ESE 6.4 km/h 6.4 km/h 77% 0.0 mm 255 W/m2
11:14 18.7 °C 14.4 °C 1020.3 hPa Calm   4.8 km/h 76% 0.0 mm 461 W/m2
11:19 18.9 °C 14.6 °C 1020.3 hPa Calm   1.6 km/h 76% 0.0 mm 585 W/m2
11:24 19.2 °C 14.7 °C 1020.3 hPa ESE 3.2 km/h 4.8 km/h 75% 0.0 mm 512 W/m2
11:29 19.3 °C 14.5 °C 1020.3 hPa ENE 1.4 km/h 3.2 km/h 74% 0.0 mm 473 W/m2
11:34 19.4 °C 14.4 °C 1020.3 hPa NE 1.4 km/h 6.4 km/h 73% 0.0 mm 476 W/m2
11:39 19.4 °C 14.2 °C 1020.0 hPa ENE 1.4 km/h 1.6 km/h 72% 0.0 mm 526 W/m2
11:44 19.5 °C 14.3 °C 1020.0 hPa East 4.7 km/h 8 km/h 72% 0.0 mm 547 W/m2
11:49 19.6 °C 14.4 °C 1020.0 hPa NE 3.2 km/h 4.8 km/h 72% 0.0 mm 538 W/m2
11:54 19.8 °C 14.4 °C 1020.0 hPa NE 6.4 km/h 8 km/h 71% 0.0 mm 513 W/m2
11:59 19.9 °C 14 °C 1020.0 hPa NE 1.4 km/h 1.6 km/h 69% 0.0 mm 754 W/m2
12:04 20.1 °C 14.9 °C 1020.0 hPa South 3.2 km/h 4.8 km/h 72% 0.0 mm 497 W/m2
12:09 20.7 °C 14.8 °C 1020.0 hPa ESE 4.7 km/h 11.3 km/h 69% 0.0 mm 1058 W/m2
12:14 20.9 °C 14.1 °C 1020.0 hPa East 3.2 km/h 4.8 km/h 65% 0.0 mm 1030 W/m2
12:19 21.1 °C 14 °C 1020.0 hPa ESE 4.7 km/h 4.8 km/h 64% 0.0 mm 243 W/m2
12:24 20.8 °C 14 °C 1020.0 hPa ENE 1.4 km/h 3.2 km/h 65% 0.0 mm 239 W/m2
12:29 20.6 °C 14 °C 1020.0 hPa ESE 3.2 km/h 4.8 km/h 66% 0.0 mm 283 W/m2
12:34 20.5 °C 13.9 °C 1020.0 hPa ENE 1.4 km/h 4.8 km/h 66% 0.0 mm 209 W/m2
12:39 20.3 °C 14 °C 1020.0 hPa West 4.7 km/h 4.8 km/h 67% 0.0 mm 156 W/m2
12:44 20.1 °C 14 °C 1020.0 hPa NW 3.2 km/h 6.4 km/h 68% 0.0 mm 132 W/m2
12:49 19.9 °C 14 °C 1020.0 hPa North 3.2 km/h 4.8 km/h 69% 0.0 mm 155 W/m2
12:54 19.9 °C 14 °C 1020.0 hPa WNW 3.2 km/h 4.8 km/h 69% 0.0 mm 185 W/m2
12:59 19.9 °C 14 °C 1020.0 hPa North 3.2 km/h 4.8 km/h 69% 0.0 mm 195 W/m2
13:04 19.8 °C 14.2 °C 1020.0 hPa West 4.7 km/h 6.4 km/h 70% 0.0 mm 265 W/m2
13:09 19.9 °C 14.3 °C 1020.0 hPa West 1.4 km/h 4.8 km/h 70% 0.0 mm 427 W/m2
13:14 20.2 °C 14.3 °C 1020.0 hPa ENE 1.4 km/h 6.4 km/h 69% 0.0 mm 919 W/m2
13:19 20.5 °C 14.2 °C 1020.0 hPa Calm   6.4 km/h 67% 0.0 mm 1058 W/m2
13:24 20.8 °C 14.2 °C 1020.0 hPa West 4.7 km/h 6.4 km/h 66% 0.0 mm 701 W/m2
13:29 20.8 °C 14.2 °C 1020.0 hPa WNW 3.2 km/h 3.2 km/h 66% 0.0 mm 320 W/m2
13:34 20.9 °C 14.3 °C 1020.0 hPa NW 4.7 km/h 9.7 km/h 66% 0.0 mm 397 W/m2
13:39 21.2 °C 14.4 °C 1020.0 hPa NW 1.4 km/h 9.7 km/h 65% 0.0 mm 1055 W/m2
13:44 21.3 °C 14.2 °C 1020.0 hPa West 3.2 km/h 6.4 km/h 64% 0.0 mm 403 W/m2
13:49 21.2 °C 14.4 °C 1019.6 hPa NW 3.2 km/h 11.3 km/h 65% 0.0 mm 364 W/m2
13:54 21.4 °C 14.5 °C 1019.6 hPa NNW 7.9 km/h 9.7 km/h 65% 0.0 mm 998 W/m2
13:59 21.6 °C 14.3 °C 1019.6 hPa NE 3.2 km/h 4.8 km/h 63% 0.0 mm 960 W/m2
14:04 21.9 °C 14.3 °C 1019.6 hPa West 4.7 km/h 4.8 km/h 62% 0.0 mm 976 W/m2
14:09 22.2 °C 14.3 °C 1019.6 hPa NW 3.2 km/h 11.3 km/h 61% 0.0 mm 991 W/m2
14:14 22.4 °C 14.3 °C 1019.6 hPa WNW 3.2 km/h 4.8 km/h 60% 0.0 mm 1013 W/m2
14:19 22.7 °C 14.3 °C 1019.6 hPa NE 3.2 km/h 6.4 km/h 59% 0.0 mm 1035 W/m2
14:24 22.6 °C 14.2 °C 1019.6 hPa North 6.4 km/h 11.3 km/h 59% 0.0 mm 1035 W/m2
14:29 22.2 °C 13.8 °C 1019.6 hPa NW 11.1 km/h 14.5 km/h 59% 0.0 mm 204 W/m2
14:34 21.8 °C 13.7 °C 1019.6 hPa NW 1.4 km/h 8 km/h 60% 0.0 mm 272 W/m2
14:39 21.8 °C 13.7 °C 1019.6 hPa SE 3.2 km/h 4.8 km/h 60% 0.0 mm 949 W/m2
14:44 22.1 °C 14 °C 1019.6 hPa WNW 7.9 km/h 11.3 km/h 60% 0.0 mm 962 W/m2
14:49 22.2 °C 13.5 °C 1019.3 hPa WNW 6.4 km/h 6.4 km/h 58% 0.0 mm 327 W/m2
14:54 22.3 °C 13.9 °C 1019.3 hPa WSW 4.7 km/h 14.5 km/h 59% 0.0 mm 1051 W/m2
14:59 22.6 °C 14.2 °C 1019.3 hPa WSW 11.1 km/h 12.9 km/h 59% 0.0 mm 376 W/m2
15:04 22.4 °C 13.5 °C 1019.3 hPa SW 6.4 km/h 11.3 km/h 57% 0.0 mm 359 W/m2
15:09 22.3 °C 13.4 °C 1019.3 hPa NW 3.2 km/h 8 km/h 57% 0.0 mm 359 W/m2
15:14 22.4 °C 13.5 °C 1019.3 hPa WNW 7.9 km/h 11.3 km/h 57% 0.0 mm 338 W/m2
15:19 22.3 °C 13.9 °C 1019.3 hPa WSW 11.1 km/h 11.3 km/h 59% 0.0 mm 304 W/m2
15:24 22.3 °C 14.2 °C 1019.3 hPa NNW 1.4 km/h 8 km/h 60% 0.0 mm 288 W/m2
15:29 22.4 °C 14 °C 1019.3 hPa WNW 4.7 km/h 11.3 km/h 59% 0.0 mm 860 W/m2
15:34 22.7 °C 14 °C 1019.3 hPa WNW 4.7 km/h 11.3 km/h 58% 0.0 mm 353 W/m2
15:39 22.7 °C 13.7 °C 1019.3 hPa Calm   16.1 km/h 57% 0.0 mm 434 W/m2
15:44 22.7 °C 13.7 °C 1019.3 hPa West 4.7 km/h 19.3 km/h 57% 0.0 mm 352 W/m2
15:49 22.7 °C 13.7 °C 1019.3 hPa West 6.4 km/h 6.4 km/h 57% 0.0 mm 325 W/m2
15:54 22.6 °C 13.6 °C 1019.3 hPa WNW 3.2 km/h 12.9 km/h 57% 0.0 mm 315 W/m2
15:59 22.5 °C 13.6 °C 1019.3 hPa West 9.7 km/h 11.3 km/h 57% 0.0 mm 287 W/m2
16:04 22.4 °C 13.5 °C 1019.3 hPa NW 3.2 km/h 12.9 km/h 57% 0.0 mm 258 W/m2
16:09 22.6 °C 13.4 °C 1019.3 hPa West 6.4 km/h 14.5 km/h 56% 0.0 mm 334 W/m2
16:14 22.7 °C 13.2 °C 1019.3 hPa West 9.7 km/h 9.7 km/h 55% 0.0 mm 353 W/m2
16:19 22.7 °C 14 °C 1019.3 hPa WSW 9.7 km/h 11.3 km/h 58% 0.0 mm 281 W/m2
16:24 22.7 °C 14 °C 1019.0 hPa NNW 6.4 km/h 14.5 km/h 58% 0.0 mm 360 W/m2
16:29 22.7 °C 13.7 °C 1019.3 hPa West 3.2 km/h 9.7 km/h 57% 0.0 mm 438 W/m2
16:34 23 °C 14 °C 1019.3 hPa NW 6.4 km/h 6.4 km/h 57% 0.0 mm 513 W/m2
16:39 23.3 °C 14 °C 1019.3 hPa WNW 6.4 km/h 16.1 km/h 56% 0.0 mm 626 W/m2
16:44 23.3 °C 14 °C 1019.3 hPa West 4.7 km/h 14.5 km/h 56% 0.0 mm 478 W/m2
16:49 23.1 °C 14.4 °C 1019.3 hPa WNW 4.7 km/h 14.5 km/h 58% 0.0 mm 352 W/m2
16:54 22.9 °C 13.9 °C 1019.3 hPa WNW 6.4 km/h 9.7 km/h 57% 0.0 mm 431 W/m2
16:59 22.9 °C 14.2 °C 1019.3 hPa West 4.7 km/h 17.7 km/h 58% 0.0 mm 483 W/m2
17:04 23.2 °C 14.7 °C 1019.3 hPa WSW 4.7 km/h 14.5 km/h 59% 0.0 mm 916 W/m2
17:09 23.4 °C 14.7 °C 1019.3 hPa WNW 14.3 km/h 16.1 km/h 58% 0.0 mm 701 W/m2
17:14 23.4 °C 14.7 °C 1019.3 hPa WSW 19.5 km/h 19.3 km/h 58% 0.0 mm 499 W/m2
17:20 23.1 °C 14.6 °C 1019.3 hPa West 6.4 km/h 16.1 km/h 59% 0.0 mm 350 W/m2
17:25 22.9 °C 14.5 °C 1019.0 hPa WNW 4.7 km/h 16.1 km/h 59% 0.0 mm 334 W/m2
17:30 22.7 °C 14.5 °C 1019.0 hPa WSW 7.9 km/h 19.3 km/h 60% 0.0 mm 304 W/m2
17:35 22.5 °C 14.3 °C 1019.0 hPa NNW 6.4 km/h 16.1 km/h 60% 0.0 mm 255 W/m2
17:40 22.6 °C 14.2 °C 1019.0 hPa NNW 6.4 km/h 6.4 km/h 59% 0.0 mm 216 W/m2
17:45 22.6 °C 14.4 °C 1019.0 hPa West 11.1 km/h 16.1 km/h 60% 0.0 mm 272 W/m2
17:50 22.4 °C 14.3 °C 1019.0 hPa WNW 3.2 km/h 17.7 km/h 60% 0.0 mm 471 W/m2
17:55 22.3 °C 14.2 °C 1019.0 hPa WNW 4.7 km/h 12.9 km/h 60% 0.0 mm 230 W/m2
18:00 22.3 °C 14.2 °C 1019.0 hPa WSW 6.4 km/h 12.9 km/h 60% 0.0 mm 253 W/m2
18:05 22.3 °C 14.2 °C 1019.0 hPa WNW 6.4 km/h 19.3 km/h 60% 0.0 mm 230 W/m2
18:10 22.2 °C 14.1 °C 1019.0 hPa WNW 6.4 km/h 12.9 km/h 60% 0.0 mm 209 W/m2
18:15 22.2 °C 14.3 °C 1019.0 hPa NNW 6.4 km/h 19.3 km/h 61% 0.0 mm 213 W/m2
18:20 22.2 °C 14.1 °C 1019.0 hPa NW 16.3 km/h 16.1 km/h 60% 0.0 mm 221 W/m2
18:25 22.2 °C 14.1 °C 1019.0 hPa North 6.4 km/h 9.7 km/h 60% 0.0 mm 264 W/m2
18:30 22.4 °C 14 °C 1019.0 hPa NNW 7.9 km/h 16.1 km/h 59% 0.0 mm 461 W/m2
18:35 22.6 °C 14.2 °C 1019.0 hPa NW 3.2 km/h 8 km/h 59% 0.0 mm 271 W/m2
18:40 22.7 °C 14 °C 1019.0 hPa NNW 6.4 km/h 12.9 km/h 58% 0.0 mm 257 W/m2
18:45 22.7 °C 14.3 °C 1019.0 hPa NW 6.4 km/h 6.4 km/h 59% 0.0 mm 308 W/m2
18:50 22.9 °C 14.2 °C 1019.0 hPa NNW 6.4 km/h 11.3 km/h 58% 0.0 mm 374 W/m2
18:55 23.2 °C 14.5 °C 1019.0 hPa WSW 4.7 km/h 6.4 km/h 58% 0.0 mm 418 W/m2
19:00 23.1 °C 14.1 °C 1019.0 hPa West 4.7 km/h 11.3 km/h 57% 0.0 mm 171 W/m2
19:05 22.8 °C 14.4 °C 1019.0 hPa West 9.7 km/h 11.3 km/h 59% 0.0 mm 151 W/m2
19:10 22.4 °C 14.3 °C 1019.0 hPa NW 3.2 km/h 8 km/h 60% 0.0 mm 125 W/m2
19:15 22.2 °C 14.3 °C 1019.0 hPa WNW 6.4 km/h 11.3 km/h 61% 0.0 mm 97 W/m2
19:20 21.9 °C 14.3 °C 1019.0 hPa West 6.4 km/h 9.7 km/h 62% 0.0 mm 70 W/m2
19:25 21.8 °C 14.4 °C 1019.0 hPa NW 12.9 km/h 12.9 km/h 63% 0.0 mm 67 W/m2
19:30 21.7 °C 14.6 °C 1019.0 hPa West 6.4 km/h 8 km/h 64% 0.0 mm 65 W/m2
19:35 21.6 °C 14.5 °C 1019.0 hPa WNW 6.4 km/h 11.3 km/h 64% 0.0 mm 65 W/m2
19:40 21.6 °C 14.7 °C 1019.0 hPa NNW 1.4 km/h 3.2 km/h 65% 0.0 mm 70 W/m2
19:45 21.6 °C 14.7 °C 1019.0 hPa NW 1.4 km/h 4.8 km/h 65% 0.0 mm 70 W/m2
19:50 21.6 °C 14.7 °C 1019.0 hPa West 4.7 km/h 6.4 km/h 65% 0.0 mm 58 W/m2
19:55 21.5 °C 14.6 °C 1019.0 hPa NW 1.4 km/h 4.8 km/h 65% 0.0 mm 56 W/m2
20:01 21.5 °C 14.6 °C 1019.0 hPa WNW 1.4 km/h 6.4 km/h 65% 0.0 mm 47 W/m2
20:06 21.5 °C 14.6 °C 1019.0 hPa Calm   3.2 km/h 65% 0.0 mm 53 W/m2
20:11 21.5 °C 14.6 °C 1019.0 hPa West 3.2 km/h 4.8 km/h 65% 0.0 mm 49 W/m2
20:16 21.5 °C 14.6 °C 1019.0 hPa WNW 1.4 km/h 1.6 km/h 65% 0.0 mm 44 W/m2
20:21 21.4 °C 14.5 °C 1019.0 hPa WNW 1.4 km/h 3.2 km/h 65% 0.0 mm 37 W/m2
20:26 21.4 °C 14.5 °C 1019.0 hPa NNW 3.2 km/h 3.2 km/h 65% 0.0 mm 28 W/m2
20:31 21.4 °C 14.5 °C 1019.0 hPa NNW 1.4 km/h 3.2 km/h 65% 0.0 mm 23 W/m2
20:36 21.3 °C 14.5 °C 1019.0 hPa WNW 3.2 km/h 4.8 km/h 65% 0.0 mm 21 W/m2
20:41 21.2 °C 14.6 °C 1019.0 hPa North 1.4 km/h 1.6 km/h 66% 0.0 mm 19 W/m2
20:46 21.1 °C 14.5 °C 1019.0 hPa Calm   1.6 km/h 66% 0.0 mm 18 W/m2
20:51 21 °C 14.6 °C 1019.0 hPa NW 1.4 km/h 3.2 km/h 67% 0.0 mm 14 W/m2
20:56 20.8 °C 14.4 °C 1019.0 hPa WNW 1.4 km/h 3.2 km/h 67% 0.0 mm 14 W/m2
21:01 20.6 °C 14.7 °C 1019.0 hPa Calm   3.2 km/h 69% 0.0 mm 12 W/m2
21:06 20.3 °C 14.4 °C 1019.0 hPa WNW 1.4 km/h 3.2 km/h 69% 0.0 mm 11 W/m2
21:11 20.2 °C 14.6 °C 1019.0 hPa WNW 1.4 km/h 1.6 km/h 70% 0.0 mm 11 W/m2
21:16 19.9 °C 14.5 °C 1019.0 hPa West 3.2 km/h 4.8 km/h 71% 0.0 mm 9 W/m2
21:21 19.7 °C 14.5 °C 1019.0 hPa Calm   3.2 km/h 72% 0.0 mm 7 W/m2
21:26 19.6 °C 14.4 °C 1019.0 hPa WSW 3.2 km/h 3.2 km/h 72% 0.0 mm 5 W/m2
21:31 19.5 °C 14.5 °C 1019.0 hPa West 1.4 km/h 4.8 km/h 73% 0.0 mm 5 W/m2
21:36 19.4 °C 14.4 °C 1019.0 hPa West 3.2 km/h 4.8 km/h 73% 0.0 mm 0 W/m2
21:41 19.3 °C 14.3 °C 1019.3 hPa WSW 1.4 km/h 6.4 km/h 73% 0.0 mm 0 W/m2
21:46 19.3 °C 14.5 °C 1019.0 hPa WSW 3.2 km/h 4.8 km/h 74% 0.0 mm 0 W/m2
21:51 19.3 °C 14.5 °C 1019.3 hPa West 4.7 km/h 6.4 km/h 74% 0.0 mm 0 W/m2
21:56 19.2 °C 14.5 °C 1019.3 hPa WSW 3.2 km/h 6.4 km/h 74% 0.0 mm 0 W/m2
22:01 19.1 °C 14.4 °C 1019.3 hPa West 1.4 km/h 6.4 km/h 74% 0.0 mm 0 W/m2
22:06 19.1 °C 14.6 °C 1019.3 hPa West 1.4 km/h 4.8 km/h 75% 0.0 mm 0 W/m2
22:11 19 °C 14.5 °C 1019.3 hPa West 3.2 km/h 6.4 km/h 75% 0.0 mm 0 W/m2
22:16 18.9 °C 14.4 °C 1019.3 hPa WSW 1.4 km/h 3.2 km/h 75% 0.0 mm 0 W/m2
22:21 18.8 °C 14.5 °C 1019.6 hPa West 3.2 km/h 4.8 km/h 76% 0.0 mm 0 W/m2
22:26 18.7 °C 14.4 °C 1019.6 hPa WSW 3.2 km/h 4.8 km/h 76% 0.0 mm 0 W/m2
22:31 18.6 °C 14.5 °C 1019.6 hPa WSW 1.4 km/h 6.4 km/h 77% 0.0 mm 0 W/m2
22:36 18.5 °C 14.4 °C 1019.6 hPa West 3.2 km/h 4.8 km/h 77% 0.0 mm 0 W/m2
22:41 18.4 °C 14.3 °C 1019.6 hPa SW 4.7 km/h 6.4 km/h 77% 0.0 mm 0 W/m2
22:46 18.4 °C 14.3 °C 1019.6 hPa WSW 1.4 km/h 4.8 km/h 77% 0.0 mm 0 W/m2
22:51 18.4 °C 14.3 °C 1019.6 hPa WSW 1.4 km/h 6.4 km/h 77% 0.0 mm 0 W/m2
22:56 18.4 °C 14.3 °C 1019.6 hPa West 3.2 km/h 4.8 km/h 77% 0.0 mm 0 W/m2
23:01 18.4 °C 14.3 °C 1019.6 hPa West 3.2 km/h 4.8 km/h 77% 0.0 mm 0 W/m2
23:06 18.3 °C 14.2 °C 1019.6 hPa WSW 4.7 km/h 4.8 km/h 77% 0.0 mm 0 W/m2
23:11 18.3 °C 14.4 °C 1019.6 hPa WSW 1.4 km/h 3.2 km/h 78% 0.0 mm 0 W/m2
23:16 18.2 °C 14.3 °C 1019.6 hPa Calm   3.2 km/h 78% 0.0 mm 0 W/m2
23:21 18.2 °C 14.3 °C 1019.6 hPa Calm   3.2 km/h 78% 0.0 mm 0 W/m2
23:26 18 °C 14.3 °C 1019.6 hPa Calm   3.2 km/h 79% 0.0 mm 0 W/m2
23:31 17.9 °C 14.2 °C 1019.6 hPa SW 1.4 km/h 1.6 km/h 79% 0.0 mm 0 W/m2
23:36 17.7 °C 14.2 °C 1019.6 hPa Calm     80% 0.0 mm 0 W/m2
23:41 17.6 °C 14.1 °C 1019.6 hPa Calm     80% 0.0 mm 0 W/m2
23:46 17.4 °C 13.9 °C 1019.6 hPa Calm     80% 0.0 mm 0 W/m2
23:51 17.2 °C 13.9 °C 1019.6 hPa Calm     81% 0.0 mm 0 W/m2
23:56 17.1 °C 14 °C 1019.6 hPa Calm     82% 0.0 mm 0 W/m2
Juneau County Weather
Compliments of Weather Underground - 4 mb